Weather reports worldwide

Advertisment
Threave, United Kingdom (99090): temperature & dewpoint: 21.06.2017 06:00:00 - 27.06.2017 06:00:00 (BST)Threave, United Kingdom (99090): temperature 5cm: 21.06.2017 06:00:00 - 27.06.2017 06:00:00 (BST)Threave, United Kingdom (99090): temperature -20cm & temperature -100cm: 21.06.2017 06:00:00 - 27.06.2017 06:00:00 (BST)Threave, United Kingdom (99090): visibility: 21.06.2017 06:00:00 - 27.06.2017 06:00:00 (BST)Threave, United Kingdom (99090): precipitation: 21.06.2017 06:00:00 - 27.06.2017 06:00:00 (BST)
Date & Time tt [°C] td [°C] tt 5cm [°C] tt -20cm [°C] tt -100cm [°C] vv [km] rr [mm]
27.06.2017 06:00:00 - - - - - - 2,0
27.06.2017 05:00:00 11,1 10,7 - - - - 2,0
27.06.2017 04:00:00 11,2 10,9 - - - - 1,8
27.06.2017 03:00:00 10,9 10,6 - - - - 1,8
27.06.2017 02:00:00 10,2 9,7 - - - - 0,6
27.06.2017 01:00:00 10,0 9,2 - - - - 1,6
27.06.2017 00:00:00 10,7 10,1 - - - - 1,0
26.06.2017 23:00:00 11,0 10,1 - - - - 0,2
26.06.2017 22:00:00 11,3 9,6 - - - - 0,2
26.06.2017 21:00:00 13,0 8,9 - - - - 0,0
26.06.2017 20:00:00 14,8 8,9 - - - - 0,0
26.06.2017 19:00:00 15,0 8,6 - - - - 0,0
26.06.2017 18:00:00 15,2 9,5 - - - - 0,0
26.06.2017 17:00:00 14,9 8,8 - - - - 0,0
26.06.2017 16:00:00 14,6 9,0 - - - - 0,0
26.06.2017 15:00:00 13,8 9,2 - - - - 0,0
26.06.2017 14:00:00 13,9 9,5 - - - - 0,0
26.06.2017 13:00:00 14,4 9,0 - - - - 0,0
26.06.2017 12:00:00 13,3 10,0 - - - - 0,0
26.06.2017 11:00:00 14,4 9,0 - - - - 0,0
26.06.2017 10:00:00 13,9 9,2 - 16,0 14,2 1,3 0,0
26.06.2017 09:00:00 12,4 9,5 - - - - 0,0
26.06.2017 08:00:00 11,2 8,9 - - - - 0,0
26.06.2017 07:00:00 9,6 8,8 - - - - 0,0
26.06.2017 06:00:00 8,1 7,6 - - - - 0,0
26.06.2017 05:00:00 6,7 6,4 - - - - 0,0
26.06.2017 04:00:00 6,5 5,7 - - - - 0,0
26.06.2017 03:00:00 6,5 5,7 - - - - 0,0
26.06.2017 02:00:00 6,9 6,1 - - - - 0,0
26.06.2017 01:00:00 6,8 5,9 - - - - 0,0
26.06.2017 00:00:00 7,8 6,3 - - - - 0,0
25.06.2017 23:00:00 8,8 6,0 - - - - 0,0
25.06.2017 22:00:00 10,2 5,6 - - - - 0,0
25.06.2017 21:00:00 12,8 5,6 - - - - 0,0
25.06.2017 20:00:00 13,3 6,3 - - - - 0,0
25.06.2017 19:00:00 14,8 6,9 - - - - 0,0
25.06.2017 18:00:00 15,7 6,5 - - - - 0,0
25.06.2017 17:00:00 16,2 7,3 - - - - 0,0
25.06.2017 16:00:00 14,7 7,4 - - - - 0,0
25.06.2017 15:00:00 15,0 7,8 - - - - 0,0
25.06.2017 14:00:00 14,0 6,8 - - - - 0,0
25.06.2017 13:00:00 13,9 7,2 - - - - 0,0
25.06.2017 12:00:00 14,3 6,7 - - - - 0,0
25.06.2017 11:00:00 14,1 7,0 - - - - 0,0
25.06.2017 10:00:00 14,3 7,3 - 16,7 14,4 24 0,0
25.06.2017 09:00:00 12,6 6,3 - - - - 0,0
25.06.2017 08:00:00 12,0 8,7 - - - - 0,0
25.06.2017 07:00:00 10,4 8,0 - - - - 0,0
25.06.2017 06:00:00 9,7 7,6 - - - - 0,0
25.06.2017 05:00:00 10,1 8,0 - - - - 0,0
25.06.2017 04:00:00 10,0 7,9 - - - - 0,0
25.06.2017 03:00:00 10,6 7,7 - - - - 0,0
25.06.2017 02:00:00 11,2 8,1 - - - - 0,0
25.06.2017 01:00:00 11,0 8,3 - - - - 0,0
25.06.2017 00:00:00 11,7 8,0 - - - - 0,0
24.06.2017 23:00:00 12,1 8,0 - - - - 0,0
24.06.2017 22:00:00 12,5 8,4 - - - - 0,0
24.06.2017 21:00:00 13,1 8,3 - - - - 0,0
24.06.2017 20:00:00 13,7 7,7 - - - - 0,0
24.06.2017 19:00:00 14,5 8,1 - - - - 0,0
24.06.2017 18:00:00 15,1 7,3 - - - - 0,0
24.06.2017 17:00:00 15,3 7,4 - - - - 0,0
24.06.2017 16:00:00 16,0 8,5 - - - - 0,0
24.06.2017 15:00:00 15,4 8,4 - - - - 0,0
24.06.2017 14:00:00 15,6 7,1 - - - - 0,0
24.06.2017 13:00:00 15,5 8,2 - - - - 0,0
24.06.2017 12:00:00 16,0 10,5 - - - - 0,0
24.06.2017 11:00:00 14,9 11,2 - - - - 0,0
24.06.2017 10:00:00 14,5 10,2 - 16,7 14,4 16 0,0
24.06.2017 09:00:00 13,5 10,1 - - - - 0,0
24.06.2017 08:00:00 12,5 9,9 - - - - 0,0
24.06.2017 07:00:00 12,0 9,6 - - - - 0,0
24.06.2017 06:00:00 11,3 7,9 - - - - 0,0
24.06.2017 05:00:00 10,7 7,4 - - - - 0,0
24.06.2017 04:00:00 10,3 7,7 - - - - 0,0
24.06.2017 03:00:00 10,5 8,8 - - - - 0,0
24.06.2017 02:00:00 10,3 8,5 - - - - 0,0
24.06.2017 01:00:00 10,5 8,8 - - - - 0,0
24.06.2017 00:00:00 10,3 9,3 - - - - 0,0
23.06.2017 23:00:00 11,3 9,6 - - - - 0,0
23.06.2017 22:00:00 11,8 9,3 - - - 10 0,0
23.06.2017 21:00:00 14,6 10,2 - - - - 0,0
23.06.2017 20:00:00 15,1 11,8 - - - - 0,0
23.06.2017 19:00:00 15,3 13,0 - - - - 0,0
23.06.2017 18:00:00 14,6 12,8 - - - - 0,0
23.06.2017 17:00:00 14,3 12,6 - - - - 0,0
23.06.2017 16:00:00 13,9 12,7 - - - - 0,0
23.06.2017 15:00:00 14,1 12,8 - - - - 0,0
23.06.2017 14:00:00 14,1 13,4 - - - - 1,8
23.06.2017 13:00:00 15,5 14,4 - - - - 0,0
23.06.2017 12:00:00 15,6 14,3 - - - - 0,0
23.06.2017 11:00:00 14,7 14,0 - - - - 0,0
23.06.2017 10:00:00 14,1 13,7 - 17,4 14,2 2,0 0,4
23.06.2017 09:00:00 13,5 12,9 - - - - 0,2
23.06.2017 08:00:00 13,5 12,6 - - - - 0,0
23.06.2017 07:00:00 13,1 12,4 - - - - 0,4
23.06.2017 06:00:00 12,7 12,1 - - - - 3,8
23.06.2017 05:00:00 12,8 12,2 - - - - 7,0
23.06.2017 04:00:00 13,1 11,8 - - - - 1,2
23.06.2017 03:00:00 13,4 11,3 - - - - 0,0
23.06.2017 02:00:00 13,0 11,2 - - - - 0,0
23.06.2017 01:00:00 13,5 10,5 - - - - 0,0
23.06.2017 00:00:00 13,5 11,7 - - - - 0,0
22.06.2017 23:00:00 13,7 11,5 - - - - 0,0
22.06.2017 22:00:00 13,7 10,1 - - - - 0,0
22.06.2017 21:00:00 13,8 10,7 - - - - 0,0
22.06.2017 20:00:00 14,2 10,7 - - - - 0,0
22.06.2017 19:00:00 16,1 10,4 - - - - 0,0
22.06.2017 18:00:00 17,8 10,4 - - - - 0,0
22.06.2017 17:00:00 18,2 11,1 - - - - 0,0
22.06.2017 16:00:00 18,2 11,1 - - - - 0,0
22.06.2017 15:00:00 18,5 10,4 - - - - 0,0
22.06.2017 14:00:00 17,6 10,2 - - - - 0,0
22.06.2017 13:00:00 16,3 10,9 - - - - 0,0
22.06.2017 12:00:00 15,8 11,9 - - - - 0,0
22.06.2017 11:00:00 14,7 11,8 - - - - 0,0
22.06.2017 10:00:00 14,3 12,0 - 17,7 14,0 5 0,0
22.06.2017 09:00:00 15,7 13,0 - - - - 0,0
22.06.2017 08:00:00 15,6 13,2 - - - - 0,0
22.06.2017 07:00:00 14,8 12,5 - - - - 0,0
22.06.2017 06:00:00 15,0 13,2 - - - - 0,0
22.06.2017 05:00:00 15,5 13,9 - - - - 0,0
22.06.2017 04:00:00 15,7 13,9 - - - - 0,0
22.06.2017 03:00:00 15,9 15,0 - - - - 0,0
22.06.2017 02:00:00 15,7 15,0 - - - - 0,0
22.06.2017 01:00:00 15,7 14,8 - - - - 0,0
22.06.2017 00:00:00 16,5 15,4 - - - - 0,0
21.06.2017 23:00:00 17,4 15,7 - - - - 0,0
21.06.2017 22:00:00 19,6 16,6 - - - - 0,0
21.06.2017 21:00:00 21,8 17,1 - - - - 0,0
21.06.2017 20:00:00 23,4 17,5 - - - - 0,0
21.06.2017 19:00:00 23,2 17,1 - - - - 0,0
21.06.2017 18:00:00 24,6 17,4 - - - - 0,0
21.06.2017 17:00:00 23,4 15,8 - - - - 0,0
21.06.2017 16:00:00 22,4 17,0 - - - - 0,0
21.06.2017 15:00:00 20,1 17,0 - - - - 0,0
21.06.2017 14:00:00 18,8 16,4 - - - - 0,0
21.06.2017 13:00:00 19,3 17,0 - - - - 0,0
21.06.2017 12:00:00 17,6 15,1 - - - - 0,0
21.06.2017 11:00:00 16,5 14,7 - - - - 0,0
21.06.2017 10:00:00 15,8 14,0 17,3 17,7 13,9 3,9 0,0
21.06.2017 09:00:00 14,5 13,0 - - - - 0,4
21.06.2017 08:00:00 14,5 12,3 - - - - 0,0
21.06.2017 07:00:00 14,7 11,7 - - - - 0,0
21.06.2017 06:00:00 14,6 11,7 - - - - 0,0

tt = temperature
td = dewpoint
tt 5cm = temperature 5cm
tt -20cm = temperature -20cm
tt -100cm = temperature -100cm
vv = visibility
rr = precipitation

Next stations